Weather History for Garrison, ND

Change the Weather History Date:

Friday, October 26, 2012

  Actual Average Record
Temperature  
Mean Temperature 30 °F -  
Max Temperature 32 °F 46 °F 66 °F (1998)
Min Temperature 27 °F 27 °F 12 °F (2001)
Degree Days  
Heating Degree Days 35    
Month to date heating degree days 579  
Moisture  
Dew Point 22 °F    
Average Humidity 74    
Maximum Humidity 85    
Minimum Humidity 63    
Precipitation  
Precipitation 0.03 in - - ()
Month to date precipitation 2.02  
Year to date precipitation 15.16  
Sea Level Pressure  
Sea Level Pressure 30.35 in    
Wind  
Wind Speed 14 mph (WNW)    
Max Wind Speed 24 mph    
Max Gust Speed 31 mph    
Averages and records for this station are not official NWS values.
T = Trace of Precipitation, MM = Missing Value Source: NWS Daily Summary

Daily Weather History Graph

Daily Weather History Graph

Search for Another Location

Airport:

Trip Planner

Search our weather history database for the weather conditions in past years. The results will help you decide how hot, cold, wet, or windy it might be!

Date:

Astronomy

Oct. 26, 2012 Rise Set
Actual Time 8:21 AM CDT 6:36 PM CDT
Civil Twilight 7:49 AM CDT 7:08 PM CDT
Nautical Twilight 7:13 AM CDT 7:44 PM CDT
Astronomical Twilight 6:37 AM CDT 8:20 PM CDT
Moon 5:02 PM CDT (10/26) 5:09 AM CDT (10/26)
Length of Visible Light 11h 18m
Length of Day
10h 15m
Waxing Gibbous, 91% of the Moon is Illuminated
Oct 26
Waxing Gibbous
Oct 29
Full
Nov 6
Last Quarter
Nov 13
New
Nov 20
First Quarter

Hourly Weather History & Observations

Time (CDT) Temp. Windchill Dew Point Humidity Pressure Visibility Wind Dir Wind Speed Gust Speed Precip Events Conditions
12:52 AM 30.9 °F 18.4 °F 19.9 °F 64% 30.32 in - NW 20.7 mph 33.4 mph N/A   Unknown
1:52 AM 30.0 °F 17.2 °F 21.0 °F 69% 30.32 in - WNW 20.7 mph 27.6 mph N/A   Unknown
2:52 AM 30.0 °F 19.5 °F 19.9 °F 66% 30.33 in - WNW 13.8 mph - N/A   Unknown
3:52 AM 30.0 °F 19.1 °F 21.9 °F 72% 30.34 in - WNW 15.0 mph - N/A   Unknown
4:52 AM 28.9 °F 17.3 °F 23.0 °F 78% 30.35 in - WNW 16.1 mph 23.0 mph N/A   Unknown
5:52 AM 28.9 °F 17.7 °F 24.1 °F 82% 30.36 in - WNW 15.0 mph - 0.02 in   Unknown
6:52 AM 28.0 °F 16.5 °F 21.9 °F 78% 30.37 in - WNW 15.0 mph - N/A   Unknown
7:52 AM 28.0 °F 18.6 °F 21.0 °F 75% 30.38 in - WNW 10.4 mph - N/A   Unknown
8:52 AM 28.0 °F 17.5 °F 21.9 °F 78% 30.39 in - WNW 12.7 mph - N/A   Unknown
9:52 AM 30.0 °F 18.3 °F 21.9 °F 72% 30.40 in - WNW 17.3 mph 21.9 mph N/A   Unknown
10:52 AM 30.0 °F 18.3 °F 23.0 °F 75% 30.40 in - West 17.3 mph 24.2 mph N/A   Unknown
11:52 AM 30.9 °F 20.7 °F 23.0 °F 72% 30.40 in - WNW 13.8 mph - N/A   Unknown
12:52 PM 30.0 °F 20.5 °F 26.1 °F 85% 30.39 in - WNW 11.5 mph - 0.01 in   Unknown
1:52 PM 30.9 °F 21.2 °F 24.1 °F 76% 30.37 in - WNW 12.7 mph - N/A   Unknown
2:52 PM 30.9 °F 20.2 °F 21.9 °F 69% 30.35 in - WNW 15.0 mph - N/A   Unknown
3:52 PM 30.9 °F 21.2 °F 21.9 °F 69% 30.34 in - West 12.7 mph - N/A   Unknown
4:52 PM 30.9 °F 21.7 °F 21.9 °F 69% 30.34 in - WNW 11.5 mph - N/A   Unknown
5:52 PM 30.0 °F 23.2 °F 21.0 °F 69% 30.33 in - NW 6.9 mph - N/A   Unknown
6:52 PM 28.9 °F 21.9 °F 21.0 °F 72% 30.34 in - NW 6.9 mph - N/A   Unknown
7:52 PM 28.9 °F 22.8 °F 21.0 °F 72% 30.34 in - NW 5.8 mph - N/A   Unknown
8:52 PM 28.0 °F 24.2 °F 21.0 °F 75% 30.34 in - WNW 3.5 mph - N/A   Unknown
9:52 PM 28.0 °F 21.7 °F 21.0 °F 75% 30.33 in - NW 5.8 mph - N/A   Unknown
10:52 PM 27.0 °F 23.0 °F 19.9 °F 75% 30.32 in - North 3.5 mph - N/A   Unknown
11:52 PM 23.0 °F 17.0 °F 19.0 °F 85% 30.33 in - NNW 4.6 mph - N/A   Unknown